Date String (YYYY-MM-DD hh:mm:ss) UTC,Instrument flags,Ambient pressure (hPa),Sample flow (lpm),Bypass flow (lpm),Sample temperature (°C),Ambient temperature (°C),ASC tube jacket temperature (°C),LED temperature (°C),Box temperature (°C),Sample RH (%),Span deviation,Mass concentration (μg/m³),Mass concentration (μg/m³),Mass concentration (μg/m³)
DateTimeUTC,F1_M11,P_M11,Q1_M11,Q2_M11,T1_M11,T2_M11,T3_M11,T4_M11,T5_M11,U1_M11,ZSPAN_M11,X0_M11,X2_M11,X1_M11
2021-08-21 15:00:00,,0829.7,5.00,0.00,30.6,29.8,00.0,39.7,32.4,22.4,0001.3,0012.42,0008.63,0008.29
2021-08-21 15:01:00,,0829.7,5.01,0.00,30.7,29.8,00.0,39.7,32.4,22.4,0001.4,0012.52,0008.64,0008.33
2021-08-21 15:02:00,,0829.7,5.00,0.00,30.7,29.8,00.0,39.7,32.5,22.1,0001.3,0012.53,0008.66,0008.36
2021-08-21 15:03:00,,0829.6,4.99,0.00,30.7,29.9,00.0,39.8,32.5,21.9,0001.2,0012.32,0008.65,0008.38
2021-08-21 15:04:00,,0829.7,5.00,0.00,30.7,29.9,00.0,39.8,32.5,22.1,0001.0,0012.53,0008.65,0008.39
2021-08-21 15:05:00,,0829.6,5.00,0.00,30.7,29.9,00.0,39.8,32.5,21.9,0001.1,0012.61,0008.68,0008.42
2021-08-21 15:06:00,,0829.7,5.01,0.00,30.7,29.9,00.0,39.8,32.5,22.1,0001.2,0013.17,0008.74,0008.45
2021-08-21 15:07:00,,0830.0,4.99,0.00,30.8,29.9,00.0,39.8,32.5,22.1,0001.3,0013.24,0008.76,0008.48
2021-08-21 15:08:00,,0829.7,5.01,0.00,30.8,29.3,00.0,39.8,32.4,22.8,0001.4,0014.00,0008.78,0008.49
2021-08-21 15:09:00,,0829.6,4.99,0.00,30.6,27.3,00.0,39.8,31.8,23.0,0001.7,0014.11,0008.80,0008.51
2021-08-21 15:10:00,,0829.6,4.99,0.00,30.4,26.5,00.0,39.7,31.6,22.5,0001.8,0014.10,0008.78,0008.52
2021-08-21 15:11:00,,0829.6,5.01,0.00,30.3,26.8,00.0,39.7,31.7,22.4,0001.9,0013.93,0008.79,0008.54
2021-08-21 15:12:00,,0829.6,5.01,0.00,30.3,27.3,00.0,39.6,31.7,22.7,0001.7,0013.91,0008.82,0008.54
2021-08-21 15:13:00,,0829.6,5.00,0.00,30.2,27.7,00.0,39.6,31.7,22.6,0001.8,0014.01,0008.86,0008.55
2021-08-21 15:14:00,,0829.6,5.00,0.00,30.2,28.0,00.0,39.5,31.8,22.9,0001.7,0014.00,0008.88,0008.57
2021-08-21 15:15:00,,0829.6,5.01,0.00,30.2,28.3,00.0,39.5,31.9,22.8,0001.9,0013.49,0008.87,0008.59
2021-08-21 15:16:00,,0829.6,5.00,0.00,30.2,28.5,00.0,39.5,31.9,23.1,0002.0,0013.49,0008.87,0008.58
2021-08-21 15:17:00,,0830.0,5.01,0.00,30.2,28.7,00.0,39.5,31.9,23.0,0002.2,0013.10,0008.86,0008.56
2021-08-21 15:18:00,,0829.7,5.00,0.00,30.3,28.8,00.0,39.5,32.0,23.1,0002.4,0013.01,0008.87,0008.57
2021-08-21 15:19:00,,0829.8,4.99,0.00,30.3,29.0,00.0,39.5,32.0,22.8,0002.1,0012.29,0008.88,0008.58
2021-08-21 15:20:00,,0829.6,5.00,0.00,30.3,29.1,00.0,39.5,32.0,23.4,0002.0,0012.19,0008.86,0008.58
2021-08-21 15:21:00,,0829.7,4.99,0.00,30.3,29.2,00.0,39.5,32.1,23.0,0002.0,0012.61,0008.89,0008.59
2021-08-21 15:22:00,,0829.6,4.99,0.00,30.3,29.2,00.0,39.5,32.1,22.9,0002.0,0012.84,0008.93,0008.62
2021-08-21 15:23:00,,0829.6,5.00,0.00,30.4,29.3,00.0,39.5,32.1,22.6,0002.2,0012.86,0008.95,0008.64
2021-08-21 15:24:00,,0829.6,5.01,0.00,30.4,29.4,00.0,39.5,32.1,23.0,0002.1,0012.98,0008.93,0008.64
2021-08-21 15:25:00,,0829.5,4.99,0.00,30.4,29.4,00.0,39.5,32.2,23.1,0002.1,0013.12,0008.96,0008.63
2021-08-21 15:26:00,,0829.5,5.00,0.00,30.4,29.5,00.0,39.5,32.2,23.1,0002.0,0013.33,0009.00,0008.65
2021-08-21 15:27:00,,0829.5,5.00,0.00,30.4,29.5,00.0,39.5,32.2,23.2,0001.8,0013.58,0009.05,0008.69
2021-08-21 15:28:00,,0829.6,5.00,0.00,30.5,29.6,00.0,39.5,32.3,23.1,0001.8,0013.84,0009.08,0008.71
2021-08-21 15:29:00,,0829.5,5.00,0.00,30.5,29.6,00.0,39.5,32.3,23.0,0001.7,0013.85,0009.09,0008.74
2021-08-21 15:30:00,,0829.5,5.01,0.00,30.5,29.6,00.0,39.6,32.3,22.9,0002.0,0013.86,0009.11,0008.76
2021-08-21 15:31:00,,0829.5,4.99,0.00,30.6,29.7,00.0,39.6,32.3,23.0,0002.0,0013.90,0009.12,0008.77
2021-08-21 15:32:00,,0829.5,5.00,0.00,30.6,29.7,00.0,39.6,32.4,22.8,0001.8,0013.47,0009.13,0008.78
2021-08-21 15:33:00,,0829.5,5.01,0.00,30.6,29.7,00.0,39.6,32.4,22.5,0001.7,0013.50,0009.14,0008.78
2021-08-21 15:34:00,,0829.5,5.00,0.00,30.6,29.7,00.0,39.6,32.4,23.0,0001.5,0013.52,0009.16,0008.80
2021-08-21 15:35:00,,0829.5,5.00,0.00,30.6,28.5,00.0,39.6,32.1,23.6,0001.5,0013.55,0009.21,0008.80
2021-08-21 15:36:00,,0829.5,5.01,0.00,30.4,26.8,00.0,39.6,31.6,23.3,0001.6,0013.86,0009.23,0008.81
2021-08-21 15:37:00,,0829.5,5.00,0.00,30.3,26.7,00.0,39.6,31.6,23.0,0001.7,0013.73,0009.21,0008.78
2021-08-21 15:38:00,,0829.5,4.99,0.00,30.2,27.1,00.0,39.5,31.7,23.0,0001.7,0013.48,0009.19,0008.77
2021-08-21 15:39:00,,0829.5,4.99,0.00,30.2,27.5,00.0,39.5,31.7,23.6,0001.5,0013.21,0009.16,0008.76
2021-08-21 15:40:00,,0829.5,5.00,0.00,30.2,27.9,00.0,39.4,31.7,23.3,0001.5,0013.20,0009.14,0008.76
2021-08-21 15:41:00,,0829.5,5.00,0.00,30.1,28.2,00.0,39.4,31.8,23.6,0001.6,0013.38,0009.16,0008.76
2021-08-21 15:42:00,,0829.5,5.00,0.00,30.2,28.4,00.0,39.4,31.9,23.7,0001.7,0013.63,0009.21,0008.80
2021-08-21 15:43:00,,0829.5,5.00,0.00,30.2,28.6,00.0,39.4,31.9,24.0,0001.7,0013.61,0009.24,0008.85
2021-08-21 15:44:00,,0829.5,5.01,0.00,30.2,28.8,00.0,39.4,31.9,23.8,0001.8,0013.57,0009.28,0008.90
2021-08-21 15:45:00,,0829.5,4.98,0.00,30.2,28.9,00.0,39.4,32.0,23.3,0001.8,0013.56,0009.32,0008.92
2021-08-21 15:46:00,,0829.5,4.99,0.00,30.2,29.0,00.0,39.4,32.0,22.8,0001.9,0013.60,0009.35,0008.97
2021-08-21 15:47:00,,0829.5,5.01,0.00,30.3,29.1,00.0,39.4,32.0,23.1,0001.8,0013.26,0009.37,0008.99
2021-08-21 15:48:00,,0829.5,5.01,0.00,30.3,29.2,00.0,39.4,32.1,23.0,0001.7,0013.27,0009.40,0009.02
2021-08-21 15:49:00,,0829.5,4.98,0.00,30.3,29.3,00.0,39.4,32.1,22.5,0001.7,0013.35,0009.46,0009.07
2021-08-21 15:50:00,,0829.5,5.01,0.00,30.4,29.3,00.0,39.4,32.1,23.1,0001.7,0013.53,0009.52,0009.12
2021-08-21 15:51:00,,0829.4,5.00,0.00,30.4,29.4,00.0,39.4,32.2,23.1,0001.7,0014.04,0009.54,0009.12
2021-08-21 15:52:00,,0829.5,5.00,0.00,30.4,29.5,00.0,39.4,32.2,22.6,0001.5,0015.34,0009.55,0009.11
2021-08-21 15:53:00,,0829.5,5.01,0.00,30.5,29.5,00.0,39.5,32.3,23.0,0001.4,0015.23,0009.53,0009.09
2021-08-21 15:54:00,,0829.5,5.00,0.00,30.5,29.6,00.0,39.5,32.3,23.4,0001.5,0015.26,0009.54,0009.07
2021-08-21 15:55:00,,0829.5,5.00,0.00,30.5,29.6,00.0,39.5,32.3,23.3,0001.5,0015.28,0009.55,0009.07
2021-08-21 15:56:00,,0829.5,5.01,0.00,30.5,29.5,00.0,39.5,32.3,23.1,0001.6,0015.25,0009.55,0009.09
2021-08-21 15:57:00,,0829.4,5.01,0.00,30.5,28.1,00.0,39.5,31.9,23.1,0001.6,0015.19,0009.55,0009.10
2021-08-21 15:58:00,,0829.4,5.00,0.00,30.3,26.6,00.0,39.5,31.5,23.2,0001.8,0015.22,0009.58,0009.14
2021-08-21 15:59:00,,0829.4,5.00,0.00,30.2,26.6,00.0,39.4,31.5,23.5,0001.8,0015.35,0009.64,0009.20
